sat.trackr.live / text

‹ back to catalog

STARLINK-34305

NORAD 65375 · 2025-190AA

PAYLOAD ACTIVE UNKNOWN

§ Identity

Operator
Country
US
Launch date
2025-08-28
Launch site
AFETR
Launch vehicle
Mass (kg)
RCS (m²)

Purposes: comms

External: N2YO · Heavens-Above · Gunter

§ Orbital elements

Epoch: 2026-05-24T11:54:29.782656Z

Period
94.11 min
Inclination
53.1585°
Eccentricity
0.0001133
Mean motion
15.30178451 rev/d
Perigee alt
474.5 km
Apogee alt
476.1 km
Semi-major
6,853.4 km
B*
5.2831e-4
RAAN
175.9059°
Arg perigee
85.4727°
Mean anomaly
274.6403°
Rev number
4,136

§ Raw data

STARLINK-343051 65375U 25190AA  26144.49617804  .00015310  00000+0  52831-3 0  99902 65375  53.1585 175.9059 0001133  85.4727 274.6403 15.30178451 41367

JSON: /api/v1/satellites/65375 · /tle

For live sub-satellite position, see the globe view (requires WebGL).

§ Visibility from observer

Set your observer location to see the next 7 days of passes ≥ 10°. The values pass through the URL so the page stays shareable.

No JS? Fill the form by hand. The geolocation button needs JavaScript.